Regional Weather Roundup
Issued by NWS

Home | Current Version | Previous Version | Graphics & Text | Print | Product List | Glossary Off
Versions: 1 2 3 4 5 6 7 8 9 10 11 12 13 14 15 16 17 18 19 20 21 22 23 24 25 26 27 28 29 30 31 32 33 34 35 36 37 38 39 40 41 42 43 44 45 46 47 48 49 50

000
ASUS43 KDTX 280310
RWRMI
MICHIGAN HOURLY REGIONAL WEATHER ROUNDUP
NATIONAL WEATHER SERVICE DETROIT/PONTIAC MI
1100 PM EDT SUN JUL 27 2014

NOTE: "FAIR" INDICATES FEW OR NO CLOUDS BELOW 12,000 FEET WITH NO
SIGNIFICANT WEATHER AND/OR OBSTRUCTION TO VISIBILITY.

MIZ047>049-052>055-059>063-066>070-074>076-081>083-280400-
SOUTHEAST LOWER MICHIGAN

CITY           SKY/WX    TMP DP  RH WIND       PRES   REMARKS
ADRIAN         MOCLDY    62  59  90 NW5       29.74R
ALMA           CLOUDY    62  60  94 NW6       29.78R
ANN ARBOR      PTCLDY    60  57  89 W6        29.72R
BAD AXE        CLOUDY    62  61  97 N7        29.72S
CARO           CLOUDY    64  64  97 N5        29.72S
DETROIT CITY   LGT RAIN  64  59  83 NW6       29.68R
DETROIT        MOCLDY    62  59  90 W7        29.70R
FLINT          CLOUDY    63  59  87 W9        29.75R
GROSSE ILE     PTCLDY    63  59  88 W6        29.68R
HILLSDALE      MOCLDY    61  61 100 CALM      29.76R
HOWELL         CLOUDY    60  59  98 NW8       29.75R

CITY           SKY/WX    TMP DP  RH WIND       PRES   REMARKS
JACKSON        MOCLDY    60  58  92 CALM      29.76R
LAMBERTVILLE   PTCLDY    63  57  82 SW3       29.72S
LANSING        CLOUDY    61  59  93 NW8       29.78R
LAPEER         CLOUDY    60  58  93 NW6       29.72F
MASON          MOCLDY    60  58  95 NW6       29.76R
MONROE         PTCLDY    61  59  94 SW3       29.69R
MT. CLEMENS    PTCLDY    61  60  96 NW12      29.68R
PONTIAC        MOCLDY   N/A N/A N/A NW12      29.72R
PORT HOPE        N/A     63  61  93 VRB7      29.69S
PORT HURON     CLOUDY    61  61 100 NW8       29.68R
TRI CITIES     CLOUDY    64  61  90 NW10      29.76R
TROY           MOCLDY    61  59  94 NW10      29.71R
SAGINAW HB     CLOUDY    63  63 100 NW8       29.73S
$$
MIZ043>046-050>051-056>058-064>065-071>073-077>080-280400-
SOUTHWEST LOWER MICHIGAN

CITY           SKY/WX    TMP DP  RH WIND       PRES   REMARKS
BATTLE CREEK   CLOUDY    64  61  90 NW7       29.77R
BENTON HARBOR  CLOUDY    63  59  87 NW10G21   29.82R
BIG RAPIDS     CLOUDY    64  64 100 NW6       29.80R
COLDWATER      MOCLDY    65  62  88 W3        29.77R
FREMONT        DRIZZLE   63  62  96 N10       29.80R
HOLLAND        CLOUDY    63  59  87 NW6       29.80R
GRAND RAPIDS   MOCLDY    64  61  90 CALM      29.78R
IONIA          MOCLDY    60  59  96 N5        29.78R
KALAMAZOO      MOCLDY    64  57  78 NW12      29.78R
LUDINGTON      MOCLDY    59  54  81 N18G28    29.85R
MARSHALL       MOCLDY    59  57  92 W3        29.76R
MOUNT PLEASANT CLOUDY    63  61  93 CALM      29.78R
MUSKEGON       MOCLDY    65  60  84 N12       29.80R
SOUTH HAVEN    CLOUDY    64  62  94 NW9G20    29.81R
$$
MIZ016>042-280400-
NORTHERN LOWER MICHIGAN

CITY           SKY/WX    TMP DP  RH WIND       PRES   REMARKS
ALPENA         CLOUDY    63  60  90 NW6       29.77R
BEAVER ISLAND  CLEAR     60  53  78 N9        29.87R
BELLAIRE       CLOUDY    64  58  81 N5        29.82R
CADILLAC       CLOUDY    62  61  97 N9        29.81R
CHARLEVOIX     CLOUDY    63  55  76 N12G21    29.87R
FRANKFORT      CLOUDY    61  54  77 N10       29.86R
GAYLORD        CLOUDY    62  59  90 VRB5      29.82R
GRAYLING       CLOUDY    62  61  96 NW7       29.81S
HARBOR SPRINGS CLOUDY    63  58  84 NW9       29.82S
HOUGHTON LAKE  CLOUDY    63  59  87 N9        29.80R
MANISTEE       CLOUDY    61  54  77 N13G18    29.86R
OSCODA         HVY RAIN  63  61  91 N13       29.73S
PELLSTON       CLOUDY    64  56  75 NW9       29.83R
ROGERS CITY    CLOUDY    64  61  91 N7        29.80R
TRAVERSE CITY  CLOUDY    62  56  80 N8        29.83R
$$
MIZ007>008-015-280400-
EASTERN UPPER MICHIGAN

CITY           SKY/WX    TMP DP  RH WIND       PRES   REMARKS
KINROSS        PTCLDY    55  54  94 N6        29.85R
MACKINAC ISLAN PTCLDY    57  54  88 N8        29.83R
NEWBERRY       PTCLDY    53  47  81 NW9G16    29.89R
S. S. MARIE    PTCLDY    62  50  64 NE7G18    29.85R
MUNISING         N/A     54  47  77 NE18      29.96R
$$
MIZ004>006-011>014-085-280400-
CENTRAL UPPER MICHIGAN

CITY           SKY/WX    TMP DP  RH WIND       PRES   REMARKS
MANISTIQUE     CLEAR     53  48  82 N10       29.90R
ESCANABA       CLEAR     55  45  67 N8        29.95R
MENOMINEE      CLEAR     61  48  63 N15       29.94R
SAWYER-GWINN   CLEAR     52  45  75 N13       29.99R
$$
MIZ001>003-009>011-084-280400-
WESTERN UPPER MICHIGAN

CITY           SKY/WX    TMP DP  RH WIND       PRES   REMARKS
IRON MOUNTAIN  CLEAR     58  48  69 N13       29.99R
HOUGHTON       CLEAR     51  47  86 MISG      30.03R
COPPER HARBOR    N/A     52  46  80 N6        30.02R
IRONWOOD       PTCLDY    54  54 100 CALM      30.06R
$$

ABBREVIATIONS USED IN REMARKS
   TC - TEMPERATURE IN CELSIUS
  WCI - WIND CHILL INDEX
   HX - HEAT INDEX
  VSB - VISIBILITY




USA.gov is the U.S. government's official web portal to all federal, state and local government web resources and services.